sat.trackr.live / text

‹ back to catalog

BRO-11

NORAD 58264 · 2023-174J

PAYLOAD ACTIVE UNKNOWN

§ Identity

Operator
Country
FR
Launch date
2023-11-11
Launch site
AFWTR
Launch vehicle
Mass (kg)
RCS (m²)

External: N2YO · Heavens-Above · Gunter

§ Orbital elements

Epoch: 2026-09-21T22:08:36.914208Z

Period
94.24 min
Inclination
97.3836°
Eccentricity
0.0009136
Mean motion
15.28085655 rev/d
Perigee alt
475.3 km
Apogee alt
487.8 km
Semi-major
6,859.7 km
B*
1.1199e-4
RAAN
340.8880°
Arg perigee
218.0593°
Mean anomaly
142.0002°
Rev number
15,952

§ Raw data

BRO-111 58264U 23174J   26264.92264947  .00002995  00000+0  11199-3 0  99932 58264  97.3836 340.8880 0009136 218.0593 142.0002 15.28085655159527

JSON: /api/v1/satellites/58264 · /tle

For live sub-satellite position, see the globe view (requires WebGL).

§ Visibility from observer

Set your observer location to see the next 7 days of passes ≥ 10°. The values pass through the URL so the page stays shareable.

No JS? Fill the form by hand. The geolocation button needs JavaScript.

§ Radio — SatNOGS DB

ModeDescriptionDownlinkUplink
BPSK Mode S - Transmitter 2.261 GHz
FSK AX.100 Mode 5 Mode U - FSK9k6 401.700 MHz
FSK AX.100 Mode 5 Mode U - FSK9k6 - TLM 401.735 MHz
FSK AX.100 Mode 5 Mode U - FSK4k8 - TLM (inactive) 401.735 MHz

4 transmitters · refreshed weekly from db.satnogs.org